Zurück zum Katalog

FENGYUN 1C DEB

AktivLEO
NORAD 36701·DEBRIS·🇨🇳 China

Gestartet May 10, 1999 von Taiyuan Satellite Launch Center

Loading…

Nächste Überflüge (nächste 24 Stunden)

TLE

AlterndSource: Space-Track

Epoche: Sep 11, 2026, 08:15 UTC

1 36701U 99025DZX 26254.34404768  .00001072  00000-0  98761-3 0  9991
2 36701 102.7536 302.6327 0255379 352.3376   7.3892 13.72554643648777

Verfolge FENGYUN 1C DEB in Echtzeit mit AllMySat

Download on the App Store